Flag for Vietnam Weather past 2 weeks in Hanoi, Vietnam

Now
79 °F

Partly cloudy.


Feels Like: 82 °F
Forecast: 75 / 85 °F
Wind: 8 mph from Southeast

Location: Ha Noi Airport


UV Index: 7 (High)

Visibility: 6 mi


Pressure: 29.77 "Hg

Humidity: 84%

Dew point: 73 °F

Location of HanoiLocation

Historic Weather in Hanoi

°F

Hanoi temperature yesterday

Maximum temperature yesterday: 84 °F (at 2:00 PM)
Minimum temperature yesterday: 77 °F (at 12:00 AM)
Average temperature yesterday: 80 °F

Past Weeks' High & Low Weather Summary

 TemperatureHumidityPressure
High84 °F (Apr 10, 2:30 PM)94% (Apr 2, 9:00 PM)30.07 "Hg (Apr 2, 9:00 PM)
Low68 °F (Apr 6, 6:30 AM)65% (Apr 2, 12:00 PM)29.71 "Hg (Apr 2, 4:00 PM)
Average76 °F84%29.86 "Hg
* Reported Apr 1 11:00 PM — Apr 16 11:30 PM, Hanoi, Weather by CustomWeather, © 2014

Note: Actual official high and low records may vary slightly from our data, if they occured in-between our weather recording intervals... More about our weather records

Advertising

Historic Weather Conditions — Data for Previous 24 hours

 ConditionsComfort  
Time TempWeatherWind HumidityBarometerVisibility
11:30 PM
Apr 16
79 °FPartly cloudy.7 mph84%29.77 "Hg6 mi
11:00 PM79 °FPartly cloudy.7 mph84%29.80 "Hg6 mi
10:30 PM79 °FPartly cloudy.9 mph84%29.80 "HgN/A
10:00 PM79 °FPartly cloudy.7 mph84%29.80 "Hg6 mi
9:30 PM79 °FPartly cloudy.10 mph84%29.77 "HgN/A
9:00 PM79 °FPartly cloudy.10 mph84%29.77 "HgN/A
8:00 PM79 °FPartly cloudy.12 mph84%29.74 "HgN/A
7:30 PM81 °FPartly cloudy.13 mph79%29.74 "HgN/A
7:00 PM81 °FPartly cloudy.9 mph79%29.71 "Hg6 mi
6:30 PM81 °FPartly cloudy.13 mph79%29.71 "Hg6 mi
6:00 PM81 °FBroken clouds.13 mph79%29.71 "HgN/A
5:30 PM81 °FBroken clouds.12 mph79%29.71 "HgN/A
5:00 PM82 °FBroken clouds.12 mph74%29.71 "HgN/A
4:30 PM82 °FBroken clouds.15 mph74%29.71 "HgN/A
4:00 PM82 °FBroken clouds.14 mph74%29.71 "HgN/A
3:30 PM82 °FBroken clouds.13 mph74%29.71 "HgN/A
3:00 PM84 °FBroken clouds.13 mph74%29.71 "HgN/A
2:30 PM82 °FBroken clouds.13 mph79%29.74 "HgN/A
2:00 PM84 °FBroken clouds.14 mph74%29.74 "HgN/A
1:30 PM82 °FBroken clouds.9 mph79%29.77 "HgN/A
1:00 PM82 °FBroken clouds.10 mph74%29.77 "HgN/A
12:30 PM82 °FBroken clouds.12 mph74%29.80 "HgN/A
12:00 PM82 °FBroken clouds.13 mph74%29.80 "HgN/A
11:30 AM82 °FBroken clouds.12 mph74%29.83 "HgN/A
11:00 AM82 °FBroken clouds.12 mph74%29.83 "HgN/A
10:30 AM81 °FBroken clouds.8 mph79%29.83 "HgN/A
10:00 AM81 °FBroken clouds.No wind79%29.86 "HgN/A
9:30 AM81 °FBroken clouds.9 mph79%29.86 "Hg5 mi
9:00 AM79 °FBroken clouds.No wind84%29.86 "Hg5 mi
8:30 AM79 °FBroken clouds.9 mph84%29.86 "Hg5 mi
8:00 AM79 °FPartly sunny.8 mph84%29.86 "Hg5 mi
6:00 AM77 °FPartly sunny.7 mph89%29.83 "Hg5 mi
5:30 AM77 °FPassing clouds.7 mph89%29.80 "Hg4 mi
5:00 AM77 °FPartly cloudy.6 mph89%29.80 "Hg4 mi
4:30 AM77 °FPartly cloudy.6 mph89%29.80 "Hg5 mi
4:00 AM77 °FPartly cloudy.7 mph89%29.80 "Hg4 mi
3:30 AM77 °FPassing clouds.9 mph89%29.80 "Hg4 mi
3:00 AM77 °FPartly cloudy.9 mph89%29.80 "Hg5 mi
2:30 AM79 °FPartly cloudy.8 mph84%29.80 "Hg5 mi
2:00 AM77 °FPartly cloudy.8 mph89%29.83 "Hg4 mi
1:30 AM77 °FPartly cloudy.8 mph89%29.83 "Hg5 mi
1:00 AM77 °FPartly cloudy.9 mph89%29.83 "Hg4 mi
12:30 AM77 °FPassing clouds.12 mph89%29.83 "Hg5 mi
12:00 AM77 °FPassing clouds.10 mph89%29.86 "Hg5 mi
Weather by CustomWeather, © 2014

See weather overview